WetterOnline ( https://www.wetteronline.de )

Wetter aktuell Kasel

Aktuelles Wetter: Trier/Petrisberg (273m)

6-stündlich | Neueste Meldungen
Ortszeit Temperatur Wetter
Mi, 18.05. 8:00 14.8° C leicht bewölkt
Mi, 18.05. 2:00 16.7° C wolkenlos
Di, 17.05. 20:00 23.6° C bewölkt
Di, 17.05. 14:00 24.7° C leicht bewölkt
Di, 17.05. 8:00 13.1° C bewölkt
Di, 17.05. 2:00 13.7° C wolkig
Mo, 16.05. 20:00 21.0° C fast wolkenlos
Mo, 16.05. 14:00 20.4° C bedeckt
Ortszeit Temperatur Wetter
Mi, 18.05. 11:30 24.5° C wolkenlos
Mi, 18.05. 11:20 24.5° C wolkenlos
Mi, 18.05. 11:10 23.8° C wolkenlos
Mi, 18.05. 11:00 22.7° C fast wolkenlos
Mi, 18.05. 10:50 22.7° C fast wolkenlos
Mi, 18.05. 10:40 23.0° C leicht bewölkt
Mi, 18.05. 10:30 22.6° C fast wolkenlos
Mi, 18.05. 10:00 21.3° C leicht bewölkt
Mi, 18.05. 9:30 19.4° C fast wolkenlos
Mi, 18.05. 9:00 18.4° C leicht bewölkt
Mi, 18.05. 8:30 16.0° C wolkig
Ortszeit Relative Feuchte Sichtweite
Mi, 18.05. 8:00 80% 40 km
Mi, 18.05. 2:00 70% 55 km
Di, 17.05. 20:00 49% 55 km
Di, 17.05. 14:00 44% 50 km
Di, 17.05. 8:00 90% 23 km
Di, 17.05. 2:00 87% 30 km
Mo, 16.05. 20:00 53% 45 km
Mo, 16.05. 14:00 67% 40 km
Ortszeit Relative Feuchte Sichtweite
Mi, 18.05. 11:30 47% >70 km
Mi, 18.05. 11:20 47% -
Mi, 18.05. 11:10 50% -
Mi, 18.05. 11:00 51% 50 km
Mi, 18.05. 10:50 51% -
Mi, 18.05. 10:40 53% -
Mi, 18.05. 10:30 55% 45 km
Mi, 18.05. 10:00 57% 40 km
Mi, 18.05. 9:30 61% 45 km
Mi, 18.05. 9:00 66% 45 km
Mi, 18.05. 8:30 75% 50 km
Ortszeit Niederschlagsmenge Niederschlagsart
Mi, 18.05. 8:00 0.0 l/m2 in 12 Std. -
Mi, 18.05. 2:00 0.0 l/m2 in 6 Std. -
Di, 17.05. 20:00 0.0 l/m2 in 12 Std. -
Di, 17.05. 14:00 0.0 l/m2 in 6 Std. -
Di, 17.05. 8:00 0.0 l/m2 in 12 Std. -
Di, 17.05. 2:00 0.0 l/m2 in 6 Std. -
Mo, 16.05. 20:00 0.1 l/m2 in 12 Std. Regen
Mo, 16.05. 14:00 0.0 l/m2 in 6 Std. -
Ortszeit Niederschlagsmenge Niederschlagsart
Mi, 18.05. 11:30 0.0 l/m2 in 1 Std. -
Mi, 18.05. 11:20 keine Meldung -
Mi, 18.05. 11:10 keine Meldung -
Mi, 18.05. 11:00 0.0 l/m2 in 1 Std. -
Mi, 18.05. 10:50 keine Meldung -
Mi, 18.05. 10:40 keine Meldung -
Mi, 18.05. 10:30 0.0 l/m2 in 1 Std. -
Mi, 18.05. 10:00 0.0 l/m2 in 1 Std. -
Mi, 18.05. 9:30 0.0 l/m2 in 1 Std. -
Mi, 18.05. 9:00 0.0 l/m2 in 1 Std. -
Mi, 18.05. 8:30 0.0 l/m2 in 1 Std. -
Ortszeit Stärke Spitze Richtung
km/h Bft. km/h Grad Sektor
Mi, 18.05. 8:00 4 1 14 50° NO
Mi, 18.05. 2:00 0 0 18 - -
Di, 17.05. 20:00 9 2 20 150° SO
Di, 17.05. 14:00 6 1 17 80° O
Di, 17.05. 8:00 4 1 11 50° NO
Di, 17.05. 2:00 4 1 22 260° W
Mo, 16.05. 20:00 14 3 40 270° W
Mo, 16.05. 14:00 28 4 50 210° SW
Ortszeit Stärke Spitze Richtung
km/h Bft. km/h Grad Sektor
Mi, 18.05. 11:30 4 1 14 350° N
Mi, 18.05. 11:20 4 1 - 350° N
Mi, 18.05. 11:10 7 2 - 360° N
Mi, 18.05. 11:00 7 2 15 350° N
Mi, 18.05. 10:50 7 2 - 350° N
Mi, 18.05. 10:40 7 2 - 20° N
Mi, 18.05. 10:30 7 2 14 10° N
Mi, 18.05. 10:00 4 1 11 20° N
Mi, 18.05. 9:30 6 1 11 30° NO
Mi, 18.05. 9:00 0 0 7 - -
Mi, 18.05. 8:30 2 1 6 80° O
Ortszeit Untergrenze Bedeckung Gattung
total tief tief mittel hoch
Mi, 18.05. 8:00 8100 m 8/8 0/8 - - -
Mi, 18.05. 2:00 - 0/8 0/8 - - -
Di, 17.05. 20:00 2100 m 7/8 7/8 - - -
Di, 17.05. 14:00 1350 m 8/8 1/8 - - -
Di, 17.05. 8:00 3900 m 8/8 7/8 - - -
Di, 17.05. 2:00 7800 m 7/8 0/8 - - -
Mo, 16.05. 20:00 8700 m 2/8 0/8 - - -
Mo, 16.05. 14:00 690 m 8/8 8/8 - - -
Ortszeit Bedeckungsgrad in Achtel und Wolkenuntergrenze
Mi, 18.05. 11:30 keine Wolken
Mi, 18.05. 11:20 keine Wolken
Mi, 18.05. 11:10 keine Wolken
Mi, 18.05. 11:00 1(10500m)
Mi, 18.05. 10:50 1(10500m)
Mi, 18.05. 10:40 2
Mi, 18.05. 10:30 2(10500m)
Mi, 18.05. 10:00 1(3900m) 5(10500m)
Mi, 18.05. 9:30 2(10500m)
Mi, 18.05. 9:00 6(10500m)
Mi, 18.05. 8:30 1(8700m) 8(10500m)
Ortszeit Luftdruck NN (hPa) Tendenz (hPa in 3 Std.)
Mi, 18.05. 8:00 1022 + 0,9
Mi, 18.05. 2:00 1021 + 0,7
Di, 17.05. 20:00 1019 - 0,4
Di, 17.05. 14:00 1020 - 1,5
Di, 17.05. 8:00 1022 + 1,0
Di, 17.05. 2:00 1022 + 0,6
Mo, 16.05. 20:00 1019 + 0,5
Mo, 16.05. 14:00 1018 + 1,4
Ortszeit Luftdruck NN (hPa) Tendenz (hPa in 3 Std.)
Mi, 18.05. 11:30 1021 - 0,1
Mi, 18.05. 11:20 1021 keine Meldung
Mi, 18.05. 11:10 1021 keine Meldung
Mi, 18.05. 11:00 1022 0,0
Mi, 18.05. 10:50 1022 keine Meldung
Mi, 18.05. 10:40 1021 keine Meldung
Mi, 18.05. 10:30 1022 + 0,3
Mi, 18.05. 10:00 1022 + 0,6
Mi, 18.05. 9:30 1022 + 0,9
Mi, 18.05. 9:00 1022 + 0,8
Mi, 18.05. 8:30 1022 + 1,1
Ortszeit Schneehöhe (cm)
Mi, 18.05. 8:00 0
Mi, 18.05. 2:00 0
Di, 17.05. 20:00 0
Di, 17.05. 14:00 0
Di, 17.05. 8:00 0
Di, 17.05. 2:00 0
Mo, 16.05. 20:00 0
Mo, 16.05. 14:00 0
Ortszeit Schneehöhe (cm)
Mi, 18.05. 11:30 0
Mi, 18.05. 11:20 0
Mi, 18.05. 11:10 0
Mi, 18.05. 11:00 0
Mi, 18.05. 10:50 0
Mi, 18.05. 10:40 0
Mi, 18.05. 10:30 0
Mi, 18.05. 10:00 0
Mi, 18.05. 9:30 0
Mi, 18.05. 9:00 0
Mi, 18.05. 8:30 0
Link zu dieser Seite / Seite empfehlen

Das Wetter in ...